Record,Date/Time,10,Tamb(K),Rh(%),Pres(mb),Tir(K),Rain,Az(deg),El(deg),TkBB(K), Ch  22.234, Ch  23.034, Ch  23.834, Ch  26.234, Ch  30.000, Ch  51.248, Ch  52.280, Ch  53.848, Ch  54.940, Ch  56.660, Ch  57.288, Ch  58.800, Ch 
Record,Date/Time,40,Tamb(K),Rh(%),Pres(mb),Tir(K),Rain
Record,Date/Time,50,Az(deg),El(deg),TkBB(K), Ch  22.000, Ch  22.234, Ch  22.500, Ch  23.000, Ch  23.034, Ch  23.500, Ch  23.834, Ch  24.000, Ch  24.500, Ch  25.000, Ch  25.500, Ch  26.000, Ch  26.234, Ch  26.500, Ch  27.000, Ch  27.500, Ch  28.000, Ch  28.500, Ch  29.000, Ch  29.500, Ch  30.000, Ch  51.248, Ch  51.760, Ch  52.280, Ch  52.804, Ch  53.336, Ch  53.848, Ch  54.400, Ch  54.940, Ch  55.500, Ch  56.020, Ch  56.660, Ch  57.288, Ch  57.964, Ch  58.800, Ch 
Record,Date/Time,80,ID,SNR,Tamb(K),Rh(%),Pres(mb),Tir(K),Rain,Az(deg),El(deg),TkBB(K), Ch  22.234, Ch  23.034, Ch  23.834, Ch  26.234, Ch  30.000, Ch  51.248, Ch  52.280, Ch  53.848, Ch  54.940, Ch  56.660, Ch  57.288, Ch  58.800, Ch 
     1,10/01/18 00:04:44,41, 302.2760,  81.1100,1004.2340, 281.4600,1
     2,10/01/18 00:05:10,51,  0.00, 19.80,311.590,,218.338,220.018,,,201.881,188.887,,,155.160,,,132.258,,,,117.859,,,,102.574,255.985,267.490,278.943,289.042,294.172,297.937,298.945,299.881,300.838,301.162,300.981,301.342,300.927,300.639,
     3,10/01/18 00:05:24,51,  0.00, 90.00,311.601,,103.583,105.569,,, 91.452, 81.597,,, 61.373,,, 51.090,,,, 46.336,,,, 34.593,137.278,153.578,175.456,205.056,237.650,267.115,285.995,293.177,296.134,297.435,298.047,298.648,298.312,298.770,
     4,10/01/18 00:05:37,51,  0.00,160.20,311.576,,197.740,200.089,,,181.888,169.108,,,137.017,,,116.011,,,,103.214,,,, 88.073,235.324,249.834,265.745,281.263,290.709,296.231,297.994,299.126,299.761,300.192,300.766,300.176,300.469,300.098,
     5,10/01/18 00:06:03,41, 302.0960,  79.9600,1004.1120, 281.2500,1
     6,10/01/18 00:06:29,51,  0.00, 19.80,311.602,,228.031,228.139,,,208.621,198.307,,,164.764,,,140.590,,,,117.166,,,,109.848,250.080,262.973,276.045,287.112,294.042,297.325,298.514,299.954,300.599,300.286,300.876,301.170,301.412,301.496,
     7,10/01/18 00:06:43,51,  0.00, 90.00,311.583,,106.509,106.741,,, 90.321, 83.223,,, 63.209,,, 51.865,,,, 38.932,,,, 35.388,137.162,153.947,176.001,205.258,238.059,267.096,286.131,293.976,296.833,297.047,297.842,298.760,298.978,298.841,
     8,10/01/18 00:06:56,51,  0.00,160.20,311.577,,200.509,200.718,,,180.481,170.600,,,138.683,,,116.352,,,, 95.125,,,, 88.590,235.777,250.978,267.035,281.568,291.423,296.238,298.257,299.429,300.304,299.993,300.543,300.878,301.274,301.083,
     9,10/01/18 00:07:20,41, 302.2170,  79.9900,1004.0120, 281.7800,1
    10,10/01/18 00:07:46,51,  0.00, 19.80,311.590,,224.768,224.996,,,205.503,195.246,,,161.762,,,137.768,,,,114.980,,,,107.821,253.876,265.839,277.796,288.774,294.846,297.651,299.458,300.218,300.772,301.610,301.052,301.310,301.454,301.978,
    11,10/01/18 00:07:59,51,  0.00, 90.00,311.578,,105.223,105.243,,, 89.128, 82.070,,, 62.010,,, 50.625,,,, 37.874,,,, 35.273,137.035,153.679,176.101,205.710,238.414,267.852,286.778,294.067,296.925,298.672,298.236,299.158,299.482,299.446,
    12,10/01/18 00:08:13,51,  0.00,160.20,311.582,,199.785,200.193,,,179.781,169.457,,,137.443,,,115.377,,,, 94.799,,,, 88.532,237.075,251.437,267.558,282.076,291.911,296.577,298.329,299.428,300.470,300.748,300.506,301.053,301.365,301.124,
    13,10/01/18 00:08:37,41, 302.1390,  80.2900,1004.1200, 281.5500,1
    14,10/01/18 00:09:03,51,  0.00, 19.80,311.588,,223.300,222.656,,,203.586,193.131,,,159.641,,,135.886,,,,112.417,,,,105.478,252.715,265.295,277.851,288.538,294.926,297.990,299.164,300.004,300.503,301.755,301.138,301.288,301.323,301.491,
    15,10/01/18 00:09:17,51,  0.00, 90.00,311.595,,106.120,106.298,,, 90.583, 83.206,,, 63.031,,, 52.042,,,, 38.399,,,, 35.783,137.569,153.899,176.334,205.590,238.447,267.818,286.204,293.999,295.857,298.215,298.052,297.915,298.983,299.782,
    16,10/01/18 00:09:30,51,  0.00,160.20,311.595,,198.315,198.157,,,178.300,168.033,,,136.536,,,114.694,,,, 93.608,,,, 87.479,237.237,252.140,267.806,282.246,291.951,296.287,298.032,299.375,299.877,300.943,300.651,300.066,300.791,301.057,
    17,10/01/18 00:09:54,41, 302.1980,  78.9200,1004.3520, 281.3100,1
    18,10/01/18 00:10:20,51,  0.00, 19.80,311.608,,229.177,229.244,,,210.079,200.398,,,166.252,,,142.297,,,,119.483,,,,111.647,252.056,264.864,277.432,288.343,294.728,297.258,299.091,300.169,300.043,301.120,301.677,301.401,301.651,300.924,
    19,10/01/18 00:10:33,51,  0.00, 90.00,311.606,,105.953,106.459,,, 89.988, 83.136,,, 62.837,,, 51.427,,,, 38.716,,,, 35.898,136.836,154.293,175.927,205.786,238.425,267.024,286.290,293.725,296.160,297.497,299.026,298.692,299.214,298.712,
    20,10/01/18 00:10:47,51,  0.00,160.20,311.599,,195.875,196.059,,,175.259,165.561,,,133.396,,,112.019,,,, 91.302,,,, 85.374,238.051,253.154,268.716,282.742,291.995,296.428,297.958,299.629,300.449,300.633,301.167,301.018,301.349,300.655,
    21,10/01/18 00:11:12,41, 302.3390,  81.8000,1004.1140, 281.5700,1
    22,10/01/18 00:11:38,51,  0.00, 19.80,311.638,,227.766,227.769,,,208.598,199.031,,,165.380,,,141.240,,,,118.605,,,,110.549,253.179,266.056,278.115,288.609,294.407,297.521,298.973,299.985,300.693,301.142,300.984,301.237,300.997,301.049,
    23,10/01/18 00:11:51,51,  0.00, 90.00,311.621,,105.307,105.676,,, 89.584, 82.633,,, 62.483,,, 51.630,,,, 38.785,,,, 35.535,136.059,153.468,175.828,205.398,237.999,266.940,286.089,293.851,296.386,297.451,298.251,298.474,298.262,298.680,
    24,10/01/18 00:12:04,51,  0.00,160.20,311.608,,199.150,198.907,,,178.734,168.878,,,136.541,,,114.535,,,, 94.154,,,, 87.036,233.365,248.543,265.456,280.188,290.974,295.810,298.104,299.540,299.785,300.716,300.396,300.487,300.559,300.567,
    25,10/01/18 00:12:29,41, 302.2370,  82.9200,1004.2500, 281.8700,1
    26,10/01/18 00:12:56,51,  0.00, 19.80,311.642,,234.564,234.618,,,216.271,206.662,,,173.433,,,148.398,,,,125.320,,,,117.186,252.158,265.031,277.182,288.073,294.834,297.037,298.411,299.956,301.008,300.988,300.783,300.935,301.166,301.596,
    27,10/01/18 00:13:09,51,  0.00, 90.00,311.647,,106.450,106.269,,, 90.484, 83.494,,, 63.027,,, 51.822,,,, 38.693,,,, 36.161,137.250,154.057,176.287,205.864,238.821,267.398,286.569,293.814,296.847,297.587,298.346,297.980,298.659,299.206,
    28,10/01/18 00:13:22,51,  0.00,160.20,311.651,,194.687,194.402,,,174.416,164.578,,,132.825,,,111.578,,,, 91.271,,,, 85.104,234.804,249.924,266.297,281.522,291.778,295.975,298.082,299.393,300.698,300.501,300.619,300.471,300.670,301.091,
    29,10/01/18 00:13:47,41, 302.1860,  81.7800,1004.2360, 281.4000,1
    30,10/01/18 00:14:14,51,  0.00, 19.80,311.701,,220.745,220.926,,,201.548,191.000,,,157.961,,,133.871,,,,111.275,,,,104.091,251.889,264.269,276.666,288.044,294.477,296.830,298.906,299.249,300.462,300.978,301.511,301.267,300.965,301.284,
    31,10/01/18 00:14:27,51,  0.00, 90.00,311.685,,105.806,106.043,,, 90.054, 82.869,,, 63.252,,, 51.549,,,, 38.700,,,, 35.605,137.296,153.686,175.457,205.390,238.061,266.953,286.328,293.636,296.481,297.413,299.018,299.014,298.654,298.627,
    32,10/01/18 00:14:40,51,  0.00,160.20,311.673,,202.739,202.809,,,182.769,172.834,,,140.578,,,118.220,,,, 96.945,,,, 90.673,232.866,248.300,264.350,280.145,290.776,295.962,298.213,299.112,299.996,300.576,301.081,301.003,300.659,300.755,
    33,10/01/18 00:15:05,41, 302.1860,  82.5800,1004.1200, 281.5000,1
    34,10/01/18 00:15:31,51,  0.00, 19.80,311.697,,240.087,240.382,,,222.403,213.182,,,179.120,,,154.836,,,,130.984,,,,122.487,245.431,259.054,272.660,284.942,293.013,297.026,298.910,299.114,300.504,301.091,301.564,301.848,300.984,301.384,
    35,10/01/18 00:15:44,51,  0.00, 90.00,311.687,,105.240,106.015,,, 89.641, 83.068,,, 62.324,,, 51.872,,,, 38.726,,,, 35.587,136.914,153.478,175.683,204.856,238.111,267.601,286.660,293.607,296.310,297.880,298.560,299.354,298.368,298.739,
    36,10/01/18 00:15:58,51,  0.00,160.20,311.711,,192.052,192.308,,,172.240,162.618,,,130.575,,,110.066,,,, 89.907,,,, 83.267,238.442,253.089,268.716,282.392,291.961,296.362,298.585,298.961,300.058,300.754,301.007,301.174,300.765,300.537,
    37,10/01/18 00:16:22,41, 302.0690,  81.5300,1004.2260, 281.1900,1
    38,10/01/18 00:16:48,51,  0.00, 19.80,311.721,,240.228,240.208,,,222.187,213.055,,,179.492,,,154.511,,,,130.769,,,,122.553,244.446,257.672,271.745,284.696,293.205,296.144,298.198,299.373,300.598,300.618,300.963,301.014,300.526,300.712,
    39,10/01/18 00:17:01,51,  0.00, 90.00,311.710,,105.527,105.702,,, 89.728, 82.874,,, 62.947,,, 51.283,,,, 38.177,,,, 35.759,136.937,153.472,175.690,204.911,238.245,267.050,286.385,293.646,297.009,297.589,298.270,299.136,298.627,299.264,
    40,10/01/18 00:17:14,51,  0.00,160.20,311.693,,194.200,193.991,,,173.913,164.308,,,133.064,,,111.237,,,, 90.449,,,, 84.983,236.410,251.195,267.012,281.947,291.773,296.245,298.087,299.113,300.123,300.114,300.202,301.348,300.183,300.457,
    41,10/01/18 00:17:39,41, 302.2060,  82.5800,1003.9540, 281.6000,1
    42,10/01/18 00:18:05,51,  0.00, 19.80,311.708,,223.507,223.360,,,204.061,193.577,,,160.397,,,136.406,,,,113.514,,,,105.777,248.300,262.110,275.535,286.398,294.048,297.187,298.670,300.432,301.096,300.830,301.167,302.091,301.595,301.259,
    43,10/01/18 00:18:19,51,  0.00, 90.00,311.698,,105.038,105.449,,, 89.292, 82.143,,, 62.357,,, 51.127,,,, 38.402,,,, 35.513,136.977,154.024,176.971,205.263,238.190,267.877,286.482,294.079,297.193,297.958,298.216,299.419,299.493,300.052,
    44,10/01/18 00:18:32,51,  0.00,160.20,311.699,,202.810,202.929,,,183.133,172.969,,,141.467,,,119.564,,,, 98.360,,,, 91.710,236.231,251.531,267.875,281.260,291.532,296.271,297.968,299.537,300.286,300.352,300.510,301.734,301.078,301.646,
    45,10/01/18 00:18:56,41, 302.1980,  83.5600,1004.3260, 281.8900,1
    46,10/01/18 00:19:22,51,  0.00, 19.80,311.714,,224.604,224.581,,,205.495,195.035,,,161.444,,,137.151,,,,113.751,,,,107.331,254.065,266.715,278.688,288.865,295.647,297.723,299.229,300.151,300.821,301.022,301.705,300.945,301.641,301.565,
    47,10/01/18 00:19:35,51,  0.00, 90.00,311.715,,105.499,105.724,,, 89.721, 82.709,,, 62.677,,, 51.206,,,, 37.105,,,, 35.622,137.532,154.412,176.549,206.026,239.192,267.551,286.709,294.082,296.858,297.956,298.334,298.798,299.640,299.391,
    48,10/01/18 00:19:49,51,  0.00,160.20,311.697,,200.659,200.541,,,180.679,170.586,,,138.809,,,116.510,,,, 95.496,,,, 89.424,230.118,245.717,262.932,279.163,290.627,295.382,298.185,298.774,299.815,300.247,300.499,300.696,300.949,300.940,
    49,10/01/18 00:20:13,41, 302.2490,  83.6700,1004.0080, 282.2200,1
    50,10/01/18 00:20:40,51,  0.00, 19.80,311.723,,232.322,232.241,,,213.457,203.265,,,169.816,,,145.603,,,,121.358,,,,114.277,251.156,263.775,276.924,288.141,294.321,297.533,298.632,299.603,300.973,301.014,300.337,300.782,301.461,301.555,
    51,10/01/18 00:20:53,51,  0.00, 90.00,311.716,,105.404,105.783,,, 89.906, 82.594,,, 62.777,,, 51.906,,,, 37.738,,,, 35.981,136.739,153.837,176.190,206.024,238.664,267.882,286.447,293.636,297.065,298.014,298.335,298.844,299.102,300.003,
    52,10/01/18 00:21:06,51,  0.00,160.20,311.721,,196.946,197.095,,,177.180,167.117,,,135.785,,,114.233,,,, 92.827,,,, 86.945,235.138,250.080,266.604,281.697,291.600,296.327,298.208,299.197,300.866,300.955,300.719,300.997,301.347,301.536,
    53,10/01/18 00:21:31,41, 302.1160,  83.6400,1004.2460, 282.3800,1
    54,10/01/18 00:21:58,51,  0.00, 19.80,311.722,,235.672,235.723,,,217.004,206.608,,,173.464,,,148.783,,,,124.292,,,,117.360,245.563,259.063,273.237,285.147,293.333,296.880,298.813,299.576,300.160,300.417,300.755,300.555,301.743,300.898,
    55,10/01/18 00:22:11,51,  0.00, 90.00,311.712,,105.858,105.998,,, 90.066, 82.718,,, 62.946,,, 51.789,,,, 37.800,,,, 35.936,137.275,153.591,176.104,204.979,238.205,267.719,286.590,293.870,296.402,297.709,298.514,298.850,299.120,299.207,
    56,10/01/18 00:22:24,51,  0.00,160.20,311.725,,192.900,193.042,,,172.865,162.697,,,131.942,,,111.039,,,, 89.880,,,, 83.975,239.100,253.292,269.399,282.453,292.257,296.670,298.330,299.399,300.144,300.579,300.875,300.699,301.368,301.668,
    57,10/01/18 00:22:48,41, 302.1280,  83.8000,1004.1520, 282.4100,1
    58,10/01/18 00:23:15,51,  0.00, 19.80,311.738,,229.092,229.396,,,209.932,200.640,,,167.286,,,143.186,,,,120.763,,,,112.604,255.869,267.356,279.177,289.398,295.107,297.876,299.461,299.769,300.215,301.805,301.101,301.321,301.109,301.754,
    59,10/01/18 00:23:28,51,  0.00, 90.00,311.732,,104.647,105.387,,, 88.585, 82.086,,, 62.051,,, 51.137,,,, 38.119,,,, 35.397,137.197,153.241,175.716,205.013,238.903,267.819,286.714,294.158,296.549,298.326,298.847,299.184,299.014,299.274,
    60,10/01/18 00:23:41,51,  0.00,160.20,311.716,,198.081,198.499,,,177.615,168.132,,,136.150,,,115.000,,,, 94.091,,,, 87.489,232.429,247.384,264.255,280.073,291.125,296.212,298.173,299.304,299.724,300.786,300.914,301.161,301.405,300.914,
    61,10/01/18 00:24:06,41, 302.0260,  81.9200,1003.8120, 282.0500,1
    62,10/01/18 00:24:32,51,  0.00, 19.80,311.722,,226.589,226.923,,,207.521,197.800,,,164.075,,,139.817,,,,117.204,,,,109.853,251.736,264.026,277.330,287.826,294.422,297.747,299.328,300.116,300.779,301.174,301.682,301.417,302.003,301.114,
    63,10/01/18 00:24:45,51,  0.00, 90.00,311.722,,104.621,105.040,,, 88.769, 81.903,,, 61.664,,, 50.488,,,, 37.144,,,, 35.532,136.805,153.208,175.834,205.209,238.366,267.795,287.106,294.250,296.807,297.927,298.235,299.071,299.467,299.345,
    64,10/01/18 00:24:58,51,  0.00,160.20,311.702,,189.310,189.402,,,168.934,159.241,,,127.901,,,107.243,,,, 86.851,,,, 81.361,235.270,250.254,266.928,281.580,291.881,296.596,298.282,299.211,300.449,301.195,301.268,301.481,301.886,301.672,
    65,10/01/18 00:25:22,41, 302.1860,  81.1700,1003.6220, 281.2000,1
    66,10/01/18 00:25:48,51,  0.00, 19.80,311.734,,225.796,225.958,,,206.505,196.846,,,163.039,,,138.782,,,,116.048,,,,108.473,250.993,263.584,276.948,287.628,294.376,297.496,299.020,299.837,300.461,300.775,301.111,301.261,300.518,300.997,
    67,10/01/18 00:26:01,51,  0.00, 90.00,311.714,,104.893,105.149,,, 88.950, 81.960,,, 61.999,,, 50.642,,,, 37.634,,,, 34.555,136.152,152.869,175.908,204.750,237.965,267.417,286.586,293.630,296.146,297.908,298.760,298.380,298.589,299.005,
    68,10/01/18 00:26:15,51,  0.00,160.20,311.708,,191.629,191.505,,,171.270,161.988,,,130.478,,,109.042,,,, 88.846,,,, 82.539,236.689,251.469,267.782,281.849,291.828,296.372,298.120,299.366,299.938,300.657,300.706,301.109,300.608,300.485,
    69,10/01/18 00:26:40,41, 302.1280,  80.6800,1003.4140, 281.2600,1
    70,10/01/18 00:27:06,51,  0.00, 19.80,311.713,,225.858,226.110,,,206.539,195.910,,,162.129,,,138.136,,,,114.971,,,,107.344,250.744,263.323,277.279,287.826,294.566,297.828,299.093,299.945,299.996,301.657,301.666,301.619,301.850,301.054,
    71,10/01/18 00:27:19,51,  0.00, 90.00,311.714,,104.565,104.922,,, 88.673, 81.558,,, 61.549,,, 50.782,,,, 37.518,,,, 34.739,135.947,152.531,175.756,205.001,238.010,267.695,286.305,293.859,296.547,298.042,299.031,298.847,298.595,298.933,
    72,10/01/18 00:27:32,51,  0.00,160.20,311.707,,195.097,195.233,,,175.111,164.791,,,133.079,,,111.995,,,, 90.916,,,, 84.227,236.200,250.815,268.137,282.399,292.191,296.843,298.352,299.809,300.571,300.489,301.322,301.431,300.956,300.981,
    73,10/01/18 00:27:57,41, 302.0260,  79.8500,1003.9660, 280.9500,1
    74,10/01/18 00:28:23,51,  0.00, 19.80,311.706,,227.110,227.350,,,207.906,197.964,,,164.218,,,140.256,,,,116.894,,,,109.079,254.603,266.629,279.097,288.545,295.098,297.864,298.829,300.050,300.158,300.098,300.940,300.987,300.728,300.884,
    75,10/01/18 00:28:36,51,  0.00, 90.00,311.673,,104.898,105.054,,, 88.825, 81.873,,, 61.945,,, 50.981,,,, 38.152,,,, 34.965,136.583,153.062,175.637,204.945,238.619,267.553,286.132,293.727,296.211,297.348,298.443,298.752,298.616,299.117,
    76,10/01/18 00:28:50,51,  0.00,160.20,311.702,,194.478,194.801,,,173.965,164.108,,,132.381,,,111.208,,,, 90.925,,,, 84.180,230.605,245.804,263.395,279.272,291.046,296.161,298.203,298.855,300.109,299.946,300.969,300.689,301.074,301.092,
    77,10/01/18 00:29:14,41, 302.1780,  80.0700,1003.7780, 281.0300,1
    78,10/01/18 00:29:40,51,  0.00, 19.80,311.711,,210.990,211.004,,,190.490,180.743,,,147.267,,,124.328,,,,101.616,,,, 95.602,259.623,270.835,282.019,290.652,295.962,298.434,299.516,300.320,300.889,301.457,301.785,301.571,301.980,302.146,
    79,10/01/18 00:29:54,51,  0.00, 90.00,311.707,,104.799,105.093,,, 89.113, 82.302,,, 62.052,,, 51.027,,,, 37.574,,,, 35.357,136.971,153.282,175.795,205.294,238.347,268.012,286.730,294.218,296.956,297.980,299.042,298.706,299.005,299.693,
    80,10/01/18 00:30:07,51,  0.00,160.20,311.692,,195.143,195.067,,,174.851,165.242,,,133.054,,,111.822,,,, 90.877,,,, 84.997,235.195,250.256,266.760,281.698,291.509,296.813,298.406,299.672,300.685,301.038,301.081,300.621,301.647,301.423,
    81,10/01/18 00:30:32,41, 302.2170,  80.7800,1003.9580, 281.3200,1
    82,10/01/18 00:30:58,51,  0.00, 19.80,311.724,,234.392,234.673,,,216.120,205.512,,,171.960,,,147.260,,,,123.484,,,,115.535,248.724,261.801,275.443,287.335,294.528,297.678,299.165,300.308,300.858,301.604,301.244,301.196,301.110,301.549,
    83,10/01/18 00:31:11,51,  0.00, 90.00,311.720,,103.736,103.904,,, 88.257, 80.976,,, 61.093,,, 50.345,,,, 37.189,,,, 34.642,136.204,152.928,175.921,205.136,238.176,267.277,286.583,294.029,296.425,298.141,298.985,299.036,298.709,299.442,
    84,10/01/18 00:31:25,51,  0.00,160.20,311.722,,199.704,199.957,,,179.940,169.649,,,137.429,,,115.768,,,, 95.147,,,, 88.179,230.581,246.316,263.634,279.757,290.719,295.361,298.227,299.437,299.958,300.465,300.640,300.964,300.854,300.994,
    85,10/01/18 00:31:50,41, 302.1590,  81.7200,1003.8460, 281.1700,1
    86,10/01/18 00:32:16,51,  0.00, 19.80,311.728,,222.843,223.242,,,203.637,193.747,,,159.858,,,136.548,,,,112.710,,,,106.586,249.008,262.016,275.397,287.229,293.821,297.628,299.115,299.768,300.622,301.089,301.466,301.542,301.590,301.762,
    87,10/01/18 00:32:30,51,  0.00, 90.00,311.720,,104.579,104.775,,, 88.618, 81.922,,, 61.926,,, 50.672,,,, 36.788,,,, 34.977,136.428,153.297,175.628,205.141,237.947,267.876,286.552,294.116,297.003,298.447,298.895,298.747,299.334,298.814,
    88,10/01/18 00:32:44,51,  0.00,160.20,311.723,,201.211,201.490,,,181.108,171.450,,,139.052,,,117.094,,,, 95.238,,,, 89.783,231.931,247.356,264.488,279.916,290.505,296.125,298.154,299.570,299.726,301.110,300.778,300.665,300.931,300.883,
    89,10/01/18 00:33:15,41, 302.1160,  80.8100,1004.0020, 281.0100,1
    90,10/01/18 00:33:43,51,  0.00, 19.80,311.745,,226.469,226.602,,,207.078,196.532,,,162.854,,,138.450,,,,115.195,,,,108.112,251.080,263.450,276.859,287.634,294.303,297.727,299.009,299.786,300.446,300.893,301.580,301.628,301.667,301.375,
    91,10/01/18 00:33:57,51,  0.00, 90.00,311.755,,104.345,104.448,,, 88.161, 80.777,,, 61.062,,, 49.968,,,, 36.656,,,, 34.724,136.178,153.187,175.922,205.090,238.160,267.405,286.305,293.717,296.393,297.544,298.929,298.571,298.871,298.785,
    92,10/01/18 00:34:11,51,  0.00,160.20,311.742,,193.506,193.730,,,173.519,163.130,,,131.660,,,110.337,,,, 89.565,,,, 84.011,232.386,247.793,264.973,280.449,291.109,296.044,298.092,299.465,300.122,299.913,300.818,300.581,300.857,300.537,
    93,10/01/18 00:34:41,41, 302.1670,  79.5400,1004.0900, 280.9400,1
    94,10/01/18 00:35:09,51,  0.00, 19.80,311.763,,229.647,230.079,,,210.752,200.240,,,166.568,,,142.224,,,,118.342,,,,110.594,248.117,261.263,275.186,287.191,294.146,296.928,298.313,299.782,299.921,300.731,301.418,300.761,300.880,301.312,
    95,10/01/18 00:35:23,51,  0.00, 90.00,311.758,,104.386,104.755,,, 89.046, 81.415,,, 61.622,,, 50.811,,,, 37.476,,,, 34.700,135.732,152.572,175.176,205.225,238.182,267.140,286.650,293.832,295.718,297.638,298.318,298.528,298.764,299.090,
    96,10/01/18 00:35:37,51,  0.00,160.20,311.756,,195.048,195.237,,,175.091,164.579,,,132.961,,,111.784,,,, 91.200,,,, 84.498,233.268,249.002,265.995,281.562,291.637,296.196,298.069,299.376,299.995,300.681,300.890,300.322,300.692,300.690,
    97,10/01/18 00:36:03,41, 302.3780,  79.8500,1004.0100, 281.1200,1
    98,10/01/18 00:36:29,51,  0.00, 19.80,311.769,,229.881,229.888,,,211.005,200.661,,,167.137,,,143.145,,,,119.826,,,,111.937,246.816,260.542,274.658,285.829,293.812,297.430,298.190,299.707,300.149,301.617,301.104,301.292,301.811,300.814,
    99,10/01/18 00:36:42,51,  0.00, 90.00,311.773,,104.437,104.557,,, 88.775, 81.341,,, 61.469,,, 50.981,,,, 38.002,,,, 35.034,135.930,152.605,175.670,204.592,237.898,267.287,286.049,294.119,296.506,297.977,297.664,298.573,299.325,298.839,
   100,10/01/18 00:36:56,51,  0.00,160.20,311.779,,194.080,193.912,,,174.032,163.630,,,132.062,,,110.871,,,, 90.724,,,, 83.996,234.901,250.203,267.102,281.357,291.867,296.221,297.994,299.450,300.024,300.822,300.581,300.510,301.024,301.114,
   101,10/01/18 00:37:20,41, 302.2880,  79.7100,1004.0340, 280.9500,1
   102,10/01/18 00:37:46,51,  0.00, 19.80,311.800,,225.024,225.460,,,205.945,195.310,,,161.812,,,137.240,,,,113.429,,,,106.576,251.101,263.553,276.945,287.790,294.829,297.426,298.644,299.849,301.055,300.972,301.061,301.011,301.504,301.025,
   103,10/01/18 00:37:59,51,  0.00, 90.00,311.798,,103.908,104.557,,, 88.544, 81.191,,, 61.788,,, 50.020,,,, 36.910,,,, 34.816,136.116,152.491,175.587,205.021,238.542,267.212,286.737,293.961,296.480,297.996,298.837,298.848,299.237,298.970,
   104,10/01/18 00:38:13,51,  0.00,160.20,311.794,,196.389,196.568,,,176.811,166.246,,,134.570,,,113.003,,,, 91.187,,,, 85.748,231.547,247.266,264.671,280.210,291.289,296.095,298.284,299.359,299.780,300.543,300.757,300.360,301.363,300.816,
   105,10/01/18 00:38:37,41, 302.1670,  78.8300,1003.8500, 281.0600,1
   106,10/01/18 00:39:03,51,  0.00, 19.80,311.816,,215.274,215.450,,,194.868,184.960,,,151.546,,,128.337,,,,106.653,,,, 99.362,252.483,265.659,278.092,288.636,294.973,297.577,298.810,299.923,300.449,301.064,301.269,300.951,301.947,301.257,
   107,10/01/18 00:39:17,51,  0.00, 90.00,311.816,,104.825,104.932,,, 88.669, 81.915,,, 61.921,,, 51.132,,,, 38.900,,,, 35.528,135.658,153.061,175.462,204.965,237.876,267.151,286.453,293.986,296.479,297.466,299.007,299.031,298.990,299.326,
   108,10/01/18 00:39:30,51,  0.00,160.20,311.815,,197.874,197.888,,,177.459,167.794,,,136.102,,,114.203,,,, 93.573,,,, 87.148,235.778,251.935,267.494,282.424,292.407,296.634,298.402,299.985,300.703,300.795,301.359,300.993,301.745,301.115,
   109,10/01/18 00:39:55,41, 302.2570,  79.7400,1003.9880, 281.1000,1
   110,10/01/18 00:40:21,51,  0.00, 19.80,311.864,,230.113,230.416,,,211.160,200.999,,,167.439,,,143.055,,,,119.620,,,,111.852,250.483,263.533,276.676,287.656,294.188,297.738,299.010,299.738,300.378,300.251,300.753,301.115,301.248,301.684,
   111,10/01/18 00:40:34,51,  0.00, 90.00,311.840,,104.768,105.093,,, 89.006, 81.713,,, 61.822,,, 50.776,,,, 38.081,,,, 35.490,136.182,153.627,175.554,205.315,237.881,267.588,286.199,293.921,296.887,297.200,297.692,299.172,299.185,299.501,
   112,10/01/18 00:40:48,51,  0.00,160.20,311.831,,199.874,199.809,,,179.740,169.689,,,137.588,,,115.776,,,, 95.018,,,, 88.597,231.265,247.585,264.018,280.292,290.937,296.208,298.314,299.314,300.233,300.257,300.526,300.741,301.233,301.285,
   113,10/01/18 00:41:12,41, 302.3070,  80.8700,1004.0800, 281.5800,1
   114,10/01/18 00:41:38,51,  0.00, 19.80,311.852,,221.834,221.893,,,202.371,192.149,,,158.856,,,134.893,,,,111.859,,,,104.602,252.675,265.149,277.973,288.713,294.637,297.384,298.833,300.167,300.955,300.953,301.788,300.764,300.753,300.538,
   115,10/01/18 00:41:51,51,  0.00, 90.00,311.837,,104.595,105.010,,, 89.184, 82.319,,, 62.055,,, 51.107,,,, 37.687,,,, 35.070,136.097,152.631,175.110,205.133,237.767,266.957,286.724,293.838,296.474,297.388,298.484,298.239,298.808,298.345,